Weather History for Kingston, Jamaica

Change the Weather History Date:

Monday, April 8, 2013

  Actual Average Record
Temperature  
Mean Temperature 82 °F -  
Max Temperature 89 °F 85 °F 89 °F (2007)
Min Temperature 76 °F 76 °F 73 °F (2011)
Cooling Degree Days 18    
Growing Degree Days 32 (Base 50)    
Moisture  
Dew Point 71 °F    
Average Humidity 69    
Maximum Humidity 83    
Minimum Humidity 55    
Precipitation  
Precipitation 0.00 in - - ()
Sea Level Pressure  
Sea Level Pressure 29.93 in    
Wind  
Wind Speed 10 mph ()    
Max Wind Speed 25 mph    
Max Gust Speed -    
Visibility 7.7 miles    
Events      
Averages and records for this station are not official NWS values.
T = Trace of Precipitation, MM = Missing Value Source: Averaged Metar Reports

Daily Weather History Graph

Daily Weather History Graph

Search for Another Location

Airport:

Trip Planner

Search our weather history database for the weather conditions in past years. The results will help you decide how hot, cold, wet, or windy it might be!

Date:

Astronomy

Apr. 08, 2013 Rise Set
Actual Time 5:55 AM EST 6:22 PM EST
Civil Twilight 5:33 AM EST 6:44 PM EST
Nautical Twilight 5:08 AM EST 7:09 PM EST
Astronomical Twilight 4:42 AM EST 7:35 PM EST
Moon 4:32 AM EST (4/8) 5:02 PM EST (4/8)
Length of Visible Light 13h 10m
Length of Day
12h 26m
Waning Crescent, 3% of the Moon is Illuminated
Apr 8
Waning Crescent
Apr 10
New
Apr 18
First Quarter
Apr 25
Full
May 2
Last Quarter

Hourly Weather History & Observations

Time (EST) Temp. Heat Index Dew Point Humidity Pressure Visibility Wind Dir Wind Speed Gust Speed Precip Events Conditions
12:00 AM 78.8 °F - 71.6 °F 78% 29.95 in 6.2 mi NNE 5.8 mph - N/A   Partly Cloudy
1:00 AM 78 °F - 73 °F 81% 29.95 in 7 mi North 8.1 mph - -   Haze
1:00 AM 78.8 °F - 73.4 °F 83% 29.95 in 6.2 mi North 8.1 mph - N/A   Partly Cloudy
2:00 AM 78.8 °F - 71.6 °F 78% 29.92 in 6.2 mi North 5.8 mph - N/A   Partly Cloudy
3:00 AM 77.0 °F - 69.8 °F 78% 29.89 in 6.2 mi North 4.6 mph - N/A   Partly Cloudy
4:00 AM 78 °F - 71 °F 72% 29.90 in 9 mi North 6.9 mph - -   Haze
4:00 AM 77.0 °F - 69.8 °F 78% 29.89 in 6.2 mi North 6.9 mph - N/A   Partly Cloudy
5:00 AM 77.0 °F - 69.8 °F 78% 29.89 in 6.2 mi NNW 8.1 mph - N/A   Partly Cloudy
6:00 AM 77.0 °F - 69.8 °F 78% 29.92 in 6.2 mi NNW 8.1 mph - N/A   Scattered Clouds
7:00 AM 78 °F - 70 °F 70% 29.95 in 15 mi North 5.8 mph - -   Haze
7:00 AM 78.8 °F - 69.8 °F 74% 29.95 in 6.2 mi North 5.8 mph - N/A   Partly Cloudy
8:00 AM 80.6 °F 83.9 °F 69.8 °F 70% 29.95 in 6.2 mi NNW 3.5 mph - N/A   Partly Cloudy
9:00 AM 82.4 °F 87.2 °F 71.6 °F 70% 29.98 in 6.2 mi NW 4.6 mph - N/A   Partly Cloudy
10:00 AM 84 °F - 71 °F 58% 29.99 in 14 mi SW 6.9 mph - -   Haze
10:00 AM 84.2 °F 89.6 °F 71.6 °F 66% 29.98 in 6.2 mi SW 6.9 mph - N/A   Partly Cloudy
11:00 AM 86.0 °F 93.4 °F 73.4 °F 66% 29.98 in 6.2 mi ESE 11.5 mph - N/A   Partly Cloudy
12:00 PM 87.8 °F 93.8 °F 71.6 °F 58% 29.95 in 6.2 mi SE 21.9 mph - N/A   Partly Cloudy
1:00 PM 86 °F - 72 °F 55% 29.93 in 15 mi SE 24.2 mph - -   Haze
1:00 PM 86.0 °F 91.8 °F 71.6 °F 62% 29.92 in 6.2 mi SE 24.2 mph - N/A   Scattered Clouds
2:00 PM 86.0 °F 93.4 °F 73.4 °F 66% 29.89 in 6.2 mi SE 25.3 mph - N/A   Scattered Clouds
3:00 PM 86.0 °F 95.1 °F 75.2 °F 70% 29.86 in 6.2 mi SE 24.2 mph - N/A   Mostly Cloudy
4:00 PM 84 °F - 73 °F 63% 29.88 in 14 mi SE 24.2 mph - -   Haze
4:00 PM 84.2 °F 90.9 °F 73.4 °F 70% 29.86 in 6.2 mi SE 24.2 mph - N/A   Mostly Cloudy
5:00 PM 86.0 °F 90.4 °F 69.8 °F 58% 29.89 in 6.2 mi SE 23.0 mph - N/A   Mostly Cloudy
6:00 PM 84.2 °F 88.4 °F 69.8 °F 62% 29.89 in 6.2 mi ESE 18.4 mph - N/A   Mostly Cloudy
7:00 PM 84 °F - 72 °F 58% 29.94 in 16 mi SE 17.3 mph - -   Haze
7:00 PM 84.2 °F 89.6 °F 71.6 °F 66% 29.92 in 6.2 mi SE 17.3 mph - N/A   Scattered Clouds
8:00 PM 82.4 °F 86.3 °F 69.8 °F 66% 29.95 in 6.2 mi SE 13.8 mph - N/A   Partly Cloudy
9:00 PM 82.4 °F 87.2 °F 71.6 °F 70% 29.95 in 6.2 mi SE 18.4 mph - N/A   Partly Cloudy
10:00 PM 82 °F - 71 °F 63% 29.98 in 9 mi SE 18.4 mph - -   Haze
10:00 PM 82.4 °F 87.2 °F 71.6 °F 70% 29.98 in 6.2 mi SE 18.4 mph - N/A   Partly Cloudy
11:00 PM 80.6 °F 84.6 °F 71.6 °F 74% 29.98 in 6.2 mi SE 15.0 mph - N/A   Partly Cloudy